Time,TemperatureF,DewpointF,PressureIn,WindDirection,WindDirectionDegrees,WindSpeedMPH,WindSpeedGustMPH,Humidity,HourlyPrecipIn,Conditions,Clouds,dailyrainin,SoftwareType,DateUTC
2013-01-05 00:28:00,67.9,66.0,30.19,NNW,344,0.0,-999.0,94,-99.99,,,0.00,weatherlink.com 1.10,2013-01-05 05:28:00,
2013-01-05 00:43:00,67.7,66.0,30.19,NNW,333,0.0,-999.0,94,-99.99,,,0.00,weatherlink.com 1.10,2013-01-05 05:43:00,
2013-01-05 00:58:00,67.6,66.0,30.19,NNW,331,0.0,-999.0,94,-99.99,,,0.00,weatherlink.com 1.10,2013-01-05 05:58:00,
2013-01-05 01:13:00,67.4,66.0,30.19,NNE,19,0.0,-999.0,95,-99.99,,,0.00,weatherlink.com 1.10,2013-01-05 06:13:00,
2013-01-05 01:28:00,67.3,66.0,30.18,NNE,27,0.0,-999.0,95,-99.99,,,0.00,weatherlink.com 1.10,2013-01-05 06:28:00,
2013-01-05 01:43:00,67.1,66.0,30.18,NNE,29,0.0,-999.0,95,-99.99,,,0.00,weatherlink.com 1.10,2013-01-05 06:43:00,
2013-01-05 01:58:00,66.9,66.0,30.18,NW,317,2.0,-999.0,95,-99.99,,,0.00,weatherlink.com 1.10,2013-01-05 06:58:00,
2013-01-05 02:13:00,66.9,66.0,30.18,NW,311,4.0,-999.0,96,-99.99,,,0.00,weatherlink.com 1.10,2013-01-05 07:13:00,
2013-01-05 02:28:00,67.1,66.0,30.18,NNE,17,1.0,-999.0,96,-99.99,,,0.00,weatherlink.com 1.10,2013-01-05 07:28:00,
2013-01-05 02:43:00,67.2,66.0,30.17,NE,39,1.0,-999.0,96,-99.99,,,0.00,weatherlink.com 1.10,2013-01-05 07:43:00,
2013-01-05 02:58:00,67.2,66.0,30.18,NW,317,0.0,-999.0,95,-99.99,,,0.00,weatherlink.com 1.10,2013-01-05 07:58:00,
2013-01-05 03:13:00,67.1,66.0,30.18,NW,317,2.0,-999.0,95,-99.99,,,0.00,weatherlink.com 1.10,2013-01-05 08:13:00,
2013-01-05 03:28:00,67.1,66.0,30.18,NNW,337,4.0,-999.0,95,-99.99,,,0.00,weatherlink.com 1.10,2013-01-05 08:28:00,
2013-01-05 03:43:00,67.2,66.0,30.18,NW,320,1.0,-999.0,95,-99.99,,,0.00,weatherlink.com 1.10,2013-01-05 08:43:00,
2013-01-05 03:58:00,67.2,66.0,30.18,ENE,61,1.0,-999.0,95,-99.99,,,0.00,weatherlink.com 1.10,2013-01-05 08:58:00,
2013-01-05 04:13:00,67.2,66.0,30.18,WNW,298,4.0,-999.0,95,-99.99,,,0.00,weatherlink.com 1.10,2013-01-05 09:13:00,
2013-01-05 04:28:00,67.2,66.0,30.18,NW,326,3.0,-999.0,95,-99.99,,,0.00,weatherlink.com 1.10,2013-01-05 09:28:00,
2013-01-05 04:43:00,67.1,65.0,30.18,NNE,22,3.0,-999.0,94,-99.99,,,0.00,weatherlink.com 1.10,2013-01-05 09:43:00,
2013-01-05 04:58:00,66.8,65.0,30.18,NNW,329,7.0,-999.0,94,-99.99,,,0.00,weatherlink.com 1.10,2013-01-05 09:58:00,
2013-01-05 05:13:00,66.7,65.0,30.18,NNW,336,3.0,-999.0,95,-99.99,,,0.00,weatherlink.com 1.10,2013-01-05 10:13:00,
2013-01-05 05:28:00,66.7,65.0,30.18,NNW,338,4.0,-999.0,94,-99.99,,,0.00,weatherlink.com 1.10,2013-01-05 10:28:00,
2013-01-05 05:43:00,66.7,65.0,30.18,NE,42,2.0,-999.0,94,-99.99,,,0.00,weatherlink.com 1.10,2013-01-05 10:43:00,
2013-01-05 05:58:00,66.8,65.0,30.18,NNE,32,5.0,-999.0,94,-99.99,,,0.00,weatherlink.com 1.10,2013-01-05 10:58:00,
2013-01-05 06:13:00,66.8,65.0,30.18,NNW,327,3.0,-999.0,94,-99.99,,,0.00,weatherlink.com 1.10,2013-01-05 11:13:00,
2013-01-05 06:28:00,67.0,65.0,30.19,NW,321,2.0,-999.0,94,-99.99,,,0.00,weatherlink.com 1.10,2013-01-05 11:28:00,
2013-01-05 06:43:00,67.1,65.0,30.19,NW,324,0.0,-999.0,94,-99.99,,,0.00,weatherlink.com 1.10,2013-01-05 11:43:00,
2013-01-05 06:58:00,67.2,66.0,30.20,NW,322,1.0,-999.0,94,-99.99,,,0.00,weatherlink.com 1.10,2013-01-05 11:58:00,
2013-01-05 07:13:00,67.3,66.0,30.20,WNW,287,2.0,-999.0,94,-99.99,,,0.00,weatherlink.com 1.10,2013-01-05 12:13:00,
2013-01-05 07:28:00,67.5,66.0,30.21,NE,38,0.0,-999.0,94,-99.99,,,0.00,weatherlink.com 1.10,2013-01-05 12:28:00,
2013-01-05 07:43:00,67.6,66.0,30.22,NNW,333,0.0,-999.0,94,-99.99,,,0.00,weatherlink.com 1.10,2013-01-05 12:43:00,
2013-01-05 07:58:00,67.6,66.0,30.23,NE,44,0.0,-999.0,94,-99.99,,,0.00,weatherlink.com 1.10,2013-01-05 12:58:00,
2013-01-05 08:13:00,67.6,66.0,30.23,NE,44,0.0,-999.0,94,-99.99,,,0.00,weatherlink.com 1.10,2013-01-05 13:13:00,
2013-01-05 08:28:00,67.7,66.0,30.23,NW,311,0.0,-999.0,95,-99.99,,,0.01,weatherlink.com 1.10,2013-01-05 13:28:00,
2013-01-05 08:43:00,67.9,67.0,30.23,NW,326,0.0,-999.0,95,-99.99,,,0.01,weatherlink.com 1.10,2013-01-05 13:43:00,
2013-01-05 08:58:00,68.0,67.0,30.24,NW,317,1.0,-999.0,95,-99.99,,,0.01,weatherlink.com 1.10,2013-01-05 13:58:00,
2013-01-05 09:13:00,68.0,67.0,30.24,NW,325,0.0,-999.0,95,-99.99,,,0.01,weatherlink.com 1.10,2013-01-05 14:13:00,
2013-01-05 09:28:00,68.1,67.0,30.24,NW,319,0.0,-999.0,95,-99.99,,,0.01,weatherlink.com 1.10,2013-01-05 14:28:00,
2013-01-05 09:43:00,68.3,67.0,30.24,NW,326,2.0,-999.0,95,-99.99,,,0.01,weatherlink.com 1.10,2013-01-05 14:43:00,
2013-01-05 09:58:00,68.6,67.0,30.24,NNW,329,1.0,-999.0,94,-99.99,,,0.01,weatherlink.com 1.10,2013-01-05 14:58:00,
2013-01-05 10:13:00,69.0,67.0,30.24,NE,53,1.0,-999.0,94,-99.99,,,0.01,weatherlink.com 1.10,2013-01-05 15:13:00,
2013-01-05 10:29:00,69.3,67.0,30.24,NNW,342,0.0,-999.0,93,-99.99,,,0.01,weatherlink.com 1.10,2013-01-05 15:29:00,
2013-01-05 10:44:00,69.9,68.0,30.23,WNW,300,0.0,-999.0,93,-99.99,,,0.01,weatherlink.com 1.10,2013-01-05 15:44:00,
2013-01-05 10:59:00,70.6,68.0,30.24,NW,313,1.0,-999.0,92,-99.99,,,0.01,weatherlink.com 1.10,2013-01-05 15:59:00,
2013-01-05 11:14:00,70.9,69.0,30.23,East,94,0.0,-999.0,93,-99.99,,,0.01,weatherlink.com 1.10,2013-01-05 16:14:00,
2013-01-05 11:29:00,71.1,69.0,30.23,ENE,75,1.0,-999.0,93,-99.99,,,0.02,weatherlink.com 1.10,2013-01-05 16:29:00,
2013-01-05 11:44:00,71.5,69.0,30.23,NW,323,0.0,-999.0,93,-99.99,,,0.02,weatherlink.com 1.10,2013-01-05 16:44:00,
2013-01-05 11:59:00,71.4,69.0,30.22,NW,313,2.0,-999.0,93,-99.99,,,0.04,weatherlink.com 1.10,2013-01-05 16:59:00,
2013-01-05 12:14:00,71.3,70.0,30.21,North,350,0.0,-999.0,94,-99.99,,,0.05,weatherlink.com 1.10,2013-01-05 17:14:00,
2013-01-05 12:29:00,71.2,69.0,30.20,NW,321,0.0,-999.0,94,-99.99,,,0.05,weatherlink.com 1.10,2013-01-05 17:29:00,
2013-01-05 12:44:00,71.7,70.0,30.19,ENE,64,1.0,-999.0,95,-99.99,,,0.05,weatherlink.com 1.10,2013-01-05 17:44:00,
2013-01-05 12:59:00,71.5,70.0,30.18,ENE,64,3.0,-999.0,94,-99.99,,,0.05,weatherlink.com 1.10,2013-01-05 17:59:00,
2013-01-05 13:14:00,71.5,69.0,30.18,ENE,63,2.0,-999.0,93,-99.99,,,0.05,weatherlink.com 1.10,2013-01-05 18:14:00,
2013-01-05 13:29:00,70.9,69.0,30.17,NNE,24,2.0,-999.0,92,-99.99,,,0.05,weatherlink.com 1.10,2013-01-05 18:29:00,
2013-01-05 13:44:00,71.1,69.0,30.16,ENE,65,1.0,-999.0,93,-99.99,,,0.05,weatherlink.com 1.10,2013-01-05 18:44:00,
2013-01-05 13:59:00,71.4,69.0,30.16,NE,34,0.0,-999.0,93,-99.99,,,0.05,weatherlink.com 1.10,2013-01-05 18:59:00,
2013-01-05 14:14:00,72.0,70.0,30.15,NNW,329,1.0,-999.0,92,-99.99,,,0.05,weatherlink.com 1.10,2013-01-05 19:14:00,
2013-01-05 14:29:00,72.5,70.0,30.15,NE,35,2.0,-999.0,90,-99.99,,,0.05,weatherlink.com 1.10,2013-01-05 19:29:00,
2013-01-05 14:44:00,72.6,69.0,30.15,ENE,66,2.0,-999.0,89,-99.99,,,0.05,weatherlink.com 1.10,2013-01-05 19:44:00,
2013-01-05 14:59:00,72.6,69.0,30.15,NNE,31,1.0,-999.0,89,-99.99,,,0.05,weatherlink.com 1.10,2013-01-05 19:59:00,
2013-01-05 15:14:00,72.7,69.0,30.15,NE,44,0.0,-999.0,88,-99.99,,,0.05,weatherlink.com 1.10,2013-01-05 20:14:00,
2013-01-05 15:29:00,73.0,69.0,30.15,ENE,65,1.0,-999.0,88,-99.99,,,0.05,weatherlink.com 1.10,2013-01-05 20:29:00,
2013-01-05 15:44:00,73.7,69.0,30.16,ENE,60,1.0,-999.0,86,-99.99,,,0.05,weatherlink.com 1.10,2013-01-05 20:44:00,
2013-01-05 15:59:00,74.3,69.0,30.15,NE,51,2.0,-999.0,84,-99.99,,,0.05,weatherlink.com 1.10,2013-01-05 20:59:00,
2013-01-05 16:14:00,74.6,69.0,30.15,ENE,67,1.0,-999.0,83,-99.99,,,0.05,weatherlink.com 1.10,2013-01-05 21:14:00,
2013-01-05 16:29:00,75.1,69.0,30.15,NE,35,0.0,-999.0,82,-99.99,,,0.05,weatherlink.com 1.10,2013-01-05 21:29:00,
2013-01-05 16:44:00,75.0,69.0,30.14,NE,53,1.0,-999.0,82,-99.99,,,0.05,weatherlink.com 1.10,2013-01-05 21:44:00,
2013-01-05 16:59:00,74.8,69.0,30.15,ENE,75,2.0,-999.0,82,-99.99,,,0.05,weatherlink.com 1.10,2013-01-05 21:59:00,
2013-01-05 17:29:00,74.0,69.0,30.15,ENE,65,0.0,-999.0,84,-99.99,,,0.05,weatherlink.com 1.10,2013-01-05 22:29:00,
2013-01-05 17:44:00,73.3,69.0,30.16,ESE,123,0.0,-999.0,85,-99.99,,,0.05,weatherlink.com 1.10,2013-01-05 22:44:00,
2013-01-05 17:59:00,72.4,68.0,30.16,SE,124,0.0,-999.0,87,-99.99,,,0.05,weatherlink.com 1.10,2013-01-05 22:59:00,
2013-01-05 18:14:00,71.4,68.0,30.17,SE,124,0.0,-999.0,88,-99.99,,,0.05,weatherlink.com 1.10,2013-01-05 23:14:00,
2013-01-05 18:29:00,70.7,68.0,30.17,ESE,123,0.0,-999.0,90,-99.99,,,0.05,weatherlink.com 1.10,2013-01-05 23:29:00,
2013-01-05 18:44:00,70.0,67.0,30.17,ESE,123,0.0,-999.0,91,-99.99,,,0.05,weatherlink.com 1.10,2013-01-05 23:44:00,
2013-01-05 18:59:00,69.5,67.0,30.18,SE,124,0.0,-999.0,92,-99.99,,,0.05,weatherlink.com 1.10,2013-01-05 23:59:00,
2013-01-05 19:14:00,69.1,67.0,30.18,ESE,123,0.0,-999.0,93,-99.99,,,0.05,weatherlink.com 1.10,2013-01-06 00:14:00,
2013-01-05 19:29:00,69.1,67.0,30.18,ESE,123,0.0,-999.0,94,-99.99,,,0.05,weatherlink.com 1.10,2013-01-06 00:29:00,
2013-01-05 19:44:00,68.8,67.0,30.19,ESE,123,0.0,-999.0,93,-99.99,,,0.05,weatherlink.com 1.10,2013-01-06 00:44:00,
2013-01-05 19:59:00,68.6,67.0,30.19,SE,124,0.0,-999.0,94,-99.99,,,0.05,weatherlink.com 1.10,2013-01-06 00:59:00,
2013-01-05 20:14:00,68.5,67.0,30.20,ESE,123,0.0,-999.0,94,-99.99,,,0.05,weatherlink.com 1.10,2013-01-06 01:14:00,
2013-01-05 20:29:00,68.4,67.0,30.20,ESE,123,0.0,-999.0,95,-99.99,,,0.05,weatherlink.com 1.10,2013-01-06 01:29:00,
2013-01-05 20:44:00,68.2,67.0,30.20,SE,124,0.0,-999.0,94,-99.99,,,0.05,weatherlink.com 1.10,2013-01-06 01:44:00,
2013-01-05 20:59:00,67.8,66.0,30.20,ESE,123,0.0,-999.0,95,-99.99,,,0.05,weatherlink.com 1.10,2013-01-06 01:59:00,
2013-01-05 21:14:00,67.7,66.0,30.20,SE,124,0.0,-999.0,95,-99.99,,,0.05,weatherlink.com 1.10,2013-01-06 02:14:00,
2013-01-05 21:29:00,67.4,66.0,30.20,ESE,123,0.0,-999.0,95,-99.99,,,0.05,weatherlink.com 1.10,2013-01-06 02:29:00,
2013-01-05 21:44:00,67.3,66.0,30.20,ESE,123,0.0,-999.0,95,-99.99,,,0.05,weatherlink.com 1.10,2013-01-06 02:44:00,
2013-01-05 21:59:00,67.1,66.0,30.20,ESE,123,0.0,-999.0,96,-99.99,,,0.05,weatherlink.com 1.10,2013-01-06 02:59:00,
2013-01-05 22:14:00,66.9,66.0,30.20,SE,124,0.0,-999.0,96,-99.99,,,0.05,weatherlink.com 1.10,2013-01-06 03:14:00,
2013-01-05 22:29:00,66.7,66.0,30.20,SE,124,0.0,-999.0,96,-99.99,,,0.05,weatherlink.com 1.10,2013-01-06 03:29:00,
2013-01-05 22:44:00,66.5,65.0,30.19,ESE,123,0.0,-999.0,96,-99.99,,,0.05,weatherlink.com 1.10,2013-01-06 03:44:00,
2013-01-05 22:59:00,66.0,65.0,30.19,SE,124,0.0,-999.0,96,-99.99,,,0.05,weatherlink.com 1.10,2013-01-06 03:59:00,
2013-01-05 23:14:00,66.0,65.0,30.19,SE,124,0.0,-999.0,96,-99.99,,,0.05,weatherlink.com 1.10,2013-01-06 04:14:00,
2013-01-05 23:29:00,66.0,65.0,30.18,SE,124,0.0,-999.0,96,-99.99,,,0.05,weatherlink.com 1.10,2013-01-06 04:29:00,
2013-01-05 23:44:00,65.7,65.0,30.18,ESE,123,0.0,-999.0,96,-99.99,,,0.05,weatherlink.com 1.10,2013-01-06 04:44:00,
2013-01-05 23:59:00,65.9,65.0,30.18,SE,124,0.0,-999.0,97,-99.99,,,0.00,weatherlink.com 1.10,2013-01-06 04:59:00,